This is the latest recevied weather packets stored in our database for station/object KF4UQS-14. If no packets are shown the sender has not sent any weather packets the latest 10 day(s).
| Time | Temp. | Humidity | Pressure | Rain* | Wind** | Luminosity | Snow |
|---|---|---|---|---|---|---|---|
| 1778196700 | 11.11° C | 96% | 1010.4 hPa | 1.78 mm | - | 5 W/m² | - |
| 1778196395 | 11.11° C | 96% | 1010.5 hPa | 0 mm | - | 5 W/m² | - |
| 1778196093 | 11.11° C | 96% | 1011.2 hPa | 0 mm | - | 5 W/m² | - |
| 1778195789 | 11.11° C | 95% | 1010.8 hPa | 0 mm | - | 10 W/m² | - |
| 1778195487 | 10.56° C | 95% | 1010.9 hPa | 0 mm | - | 4 W/m² | - |
| 1778195182 | 10.56° C | 95% | 1010.7 hPa | 0 mm | - | 3 W/m² | - |
| 1778194880 | 10.56° C | 95% | 1010.3 hPa | 0 mm | - | 8 W/m² | - |
| 1778194575 | 10.56° C | 95% | 1010.3 hPa | 0 mm | - | 16 W/m² | - |
| 1778194272 | 10.56° C | 94% | 1010.1 hPa | 0 mm | - | 12 W/m² | - |
| 1778193967 | 10.56° C | 94% | 1010.3 hPa | 0 mm | - | 12 W/m² | - |
| 1778193664 | 10.56° C | 93% | 1010.4 hPa | 0 mm | - | 32 W/m² | - |
| 1778193360 | 10.56° C | 93% | 1010.4 hPa | 0 mm | - | 23 W/m² | - |
| 1778193057 | 10.56° C | 92% | 1010.5 hPa | 0 mm | - | 27 W/m² | - |
| 1778192754 | 10.56° C | 92% | 1010.4 hPa | 0 mm | - | 21 W/m² | - |
| 1778192450 | 10.56° C | 92% | 1010.3 hPa | 0 mm | - | 25 W/m² | - |
| 1778192147 | 10.56° C | 92% | 1010.2 hPa | 0 mm | - | 29 W/m² | - |
| 1778191844 | 11.11° C | 92% | 1010.4 hPa | 0 mm | - | 41 W/m² | - |
| 1778191541 | 11.11° C | 91% | 1010.2 hPa | 1.27 mm | - | 50 W/m² | - |
| 1778191238 | 11.11° C | 92% | 1010.1 hPa | 1.27 mm | - | 42 W/m² | - |
| 1778190934 | 11.11° C | 94% | 1010.2 hPa | 0 mm | - | 45 W/m² | - |
| 1778190632 | 11.67° C | 96% | 1010.1 hPa | 1.78 mm | - | 44 W/m² | - |
| 1778190330 | 11.67° C | 96% | 1010.3 hPa | 1.78 mm | - | 33 W/m² | - |
| 1778190025 | 11.11° C | 96% | 1010.2 hPa | 0 mm | - | 50 W/m² | - |
| 1778189722 | 11.67° C | 96% | 1010.5 hPa | 1.27 mm | - | 53 W/m² | - |
| 1778189419 | 11.11° C | 96% | 1010.3 hPa | 1.27 mm | - | 66 W/m² | - |
* Rain latest hour (hover to see other rain measurements)
** Current wind speed in m/s (hover to see current wind gust speed)